Flag for Qatar Weather past 2 weeks in Al-Jamiliyah, Qatar

Now
97 °F

Sunny.


Feels Like: 92 °F
Forecast: 73 / 95 °F
Wind: 20 mph from North

Location: Al Udeid

Current Time: Apr 27, 2015 at 3:13:47 PM

Latest Report: Apr 27, 2015 at 2:58 PM


Visibility: N/A

Pressure: 29.85 "Hg

Humidity: 7%

Dew point: 24 °F

Location of Al-JamiliyahLocation

Historic Weather in Al-Jamiliyah — Graph

°F

Al-Jamiliyah temperature yesterday

Maximum temperature yesterday: 89 °F (at 12:58 PM)
Minimum temperature yesterday: 70 °F (at 4:58 AM)
Average temperature yesterday: 79 °F

Past Weeks' High & Low Weather Summary

 TemperatureHumidityPressure
High110 °F (Apr 12, 1:58 PM)73% (Apr 18, 5:58 AM)30.02 "Hg (Apr 18, 5:58 AM)
Low64 °F (Apr 21, 4:58 AM)6% (Apr 12, 1:58 PM)29.74 "Hg (Apr 23, 2:58 PM)
Average82 °F35%29.89 "Hg
* Reported Apr 12 1:58 PM — Apr 27 1:58 PM, Al-Jamiliyah, Weather by CustomWeather, © 2015

Note: Actual official high and low records may vary slightly from our data, if they occured in-between our weather recording intervals... More about our weather records

Advertising

Al-Jamiliyah weather history for previous 24 hours

 ConditionsComfort  
Time TempWeatherWind HumidityBarometerVisibility
1:58 PM
Mon, Apr 27
96 °FSunny.20 mph8%29.87 "HgN/A
12:58 PM96 °FClear.21 mph7%29.89 "HgN/A
11:58 AM94 °FClear.22 mph11%29.91 "HgN/A
10:58 AM92 °FClear.21 mph16%29.92 "HgN/A
9:58 AM89 °FClear.21 mph21%29.93 "HgN/A
8:58 AM85 °FClear.21 mph25%29.93 "HgN/A
7:58 AM79 °FClear.22 mph38%29.92 "HgN/A
6:58 AM75 °FPassing clouds.18 mph49%29.90 "HgN/A
5:58 AM72 °FClear.16 mph57%29.88 "HgN/A
4:58 AM71 °FClear.16 mph59%29.86 "HgN/A
3:58 AM71 °FClear.15 mph54%29.84 "HgN/A
2:58 AM70 °FClear.14 mph61%29.83 "HgN/A
1:58 AM70 °FSunny.13 mph63%29.84 "HgN/A
12:58 AM70 °FSunny.12 mph62%29.85 "HgN/A
11:58 PM
Sun, Apr 26
71 °FSunny.14 mph61%29.85 "HgN/A
10:58 PM72 °FSunny.14 mph57%29.87 "HgN/A
9:58 PM74 °FSunny.16 mph52%29.88 "HgN/A
8:58 PM74 °FSunny.18 mph52%29.88 "HgN/A
7:58 PM76 °FSunny.18 mph47%29.87 "HgN/A
6:58 PM79 °FSunny.20 mph37%29.86 "HgN/A
5:58 PM82 °FSunny.21 mph27%29.85 "HgN/A
4:58 PM86 °FSunny.24 mph16%29.85 "Hg6 mi
3:58 PM88 °FSunny.24 mph14%29.84 "Hg6 mi
Weather by CustomWeather, © 2015

See weather overviewHow to use our weather pages